Terminal Aerodrome Forecast
Issued by NWS

Home | Current Version | Previous Version | Text Only | Print | Product List | Glossary On
Versions: 1 2 3 4 5 6 7 8 9 10 11 12 13 14 15 16 17 18 19 20 21 22 23 24 25 26 27 28 29 30 31 32 33 34
000
FTAK31 PAFA 291720
TAFAOM
TAF
PAOM 291720Z 2918/3018 30007KT P6SM FEW022 SCT080
     FM292100 29010KT P6SM SCT050 SCT250
     FM301000 VRB04KT 6SM BR SCT012 OVC025=

USA.gov is the U.S. government's official web portal to all federal, state and local government web resources and services.